Location: Hurstbourne Priors
(51.2000°N, 1.3667°W)
Time: 19:44:35
(UTC+00:00)

Transit 4A - Pass Details

Date: 22 April 2021
Orbit: 870 x 974 km, 66.8° (Epoch: 09 May)

Event Time Altitude Azimuth Distance (km) Brightness Sun altitude
Rises 21:49:32 0° 172° (S) 3,623 - -19.9°
Reaches altitude 10° 21:52:35 10° 159° (SSE) 2,668 - -20.2°
Maximum altitude 21:57:21 24° 108° (ESE) 1,847 - -20.6°
Exits shadow 21:58:07 23° 97° (E) 1,869 9.1 -20.7°
Drops below altitude 10° 22:02:04 10° 58° (ENE) 2,626 10.3 -21.0°
Sets 22:05:01 0° 45° (NE) 3,555 11.1 -21.2°
